• In Latvia
  • List of Countries
  • For 7 days
  • Water Temperature
  • Satellite Maps
  • Weather Map
  • Weather Widgets
  • user-avatar
    Login

    Hourly Weather Satif

    Today, 24 January, Tuesday

    Time Temperature Precipitation Wind Pressure Humidity
    00:00 -1°C° 0 mm 2 mps 666 mmHg 95%
    01:00 -1°C° 0 mm 2 mps 666 mmHg 95%
    02:00 -2°C° 0 mm 2 mps 665 mmHg 95%
    03:00 -2°C° 0 mm 2 mps 665 mmHg 95%
    04:00 0°C° 0.3 mm 1 mps 665 mmHg 94%
    05:00 +1°C° 0.3 mm 1 mps 665 mmHg 94%
    06:00 +1°C° 0.3 mm 1 mps 665 mmHg 93%
    07:00 +2°C° 0.2 mm 1 mps 666 mmHg 90%
    08:00 +3°C° 0.2 mm 1 mps 667 mmHg 86%
    09:00 +4°C° 0.2 mm 1 mps 667 mmHg 82%
    10:00 +5°C° 0.1 mm 1 mps 667 mmHg 79%
    11:00 +5°C° 0.1 mm 2 mps 668 mmHg 76%
    12:00 +6°C° 0.1 mm 2 mps 668 mmHg 73%
    13:00 +6°C° 0.6 mm 2 mps 668 mmHg 75%
    14:00 +6°C° 0.6 mm 2 mps 668 mmHg 78%
    15:00 +4°C° 0.6 mm 3 mps 668 mmHg 81%
    16:00 +4°C° 0.8 mm 2 mps 669 mmHg 86%
    17:00 +3°C° 0.8 mm 2 mps 669 mmHg 91%
    18:00 +2°C° 0.8 mm 2 mps 669 mmHg 96%
    19:00 +2°C° 0.6 mm 2 mps 670 mmHg 96%
    20:00 +2°C° 0.6 mm 2 mps 670 mmHg 96%
    21:00 +1°C° 0.6 mm 2 mps 670 mmHg 96%
    22:00 +1°C° 0.5 mm 2 mps 670 mmHg 97%
    23:00 +1°C° 0.5 mm 2 mps 671 mmHg 97%

    Tomorrow, 25 January, Wednesday

    Time Temperature Precipitation Wind Pressure Humidity
    00:00 +1°C° 0.5 mm 2 mps 671 mmHg 97%
    01:00 +1°C° 0.5 mm 2 mps 671 mmHg 97%
    02:00 +1°C° 0.5 mm 2 mps 671 mmHg 97%
    03:00 +1°C° 0.5 mm 2 mps 671 mmHg 97%
    04:00 +2°C° 0.5 mm 2 mps 671 mmHg 97%
    05:00 +2°C° 0.5 mm 2 mps 672 mmHg 97%
    06:00 +2°C° 0.5 mm 2 mps 672 mmHg 97%
    07:00 +2°C° 0.2 mm 2 mps 672 mmHg 94%
    08:00 +3°C° 0.2 mm 2 mps 673 mmHg 91%
    09:00 +4°C° 0.2 mm 2 mps 674 mmHg 89%
    10:00 +5°C° 0 mm 2 mps 674 mmHg 83%
    11:00 +5°C° 0 mm 2 mps 674 mmHg 77%
    12:00 +7°C° 0 mm 1 mps 674 mmHg 72%
    13:00 +7°C° 0 mm 1 mps 674 mmHg 69%
    14:00 +8°C° 0 mm 1 mps 673 mmHg 66%
    15:00 +7°C° 0 mm 0 mps 673 mmHg 63%
    16:00 +5°C° 0 mm 0 mps 673 mmHg 72%
    17:00 +4°C° 0 mm 1 mps 672 mmHg 80%
    18:00 +1°C° 0 mm 1 mps 672 mmHg 89%
    19:00 +1°C° 0 mm 1 mps 672 mmHg 88%
    20:00 +1°C° 0 mm 1 mps 672 mmHg 88%
    21:00 +1°C° 0 mm 1 mps 672 mmHg 87%
    22:00 +1°C° 0 mm 1 mps 672 mmHg 87%
    23:00 -1°C° 0 mm 2 mps 672 mmHg 87%

    Day after tomorrow, 26 January, Thursday

    Time Temperature Precipitation Wind Pressure Humidity
    00:00 -1°C° 0 mm 2 mps 672 mmHg 87%
    01:00 -1°C° 0 mm 2 mps 672 mmHg 86%
    02:00 -1°C° 0 mm 2 mps 672 mmHg 85%
    03:00 -1°C° 0 mm 2 mps 671 mmHg 84%
    04:00 -1°C° 0 mm 2 mps 671 mmHg 83%
    05:00 -1°C° 0 mm 2 mps 671 mmHg 83%
    06:00 -1°C° 0 mm 2 mps 671 mmHg 82%
    07:00 +1°C° 0 mm 2 mps 672 mmHg 77%
    08:00 +3°C° 0 mm 2 mps 673 mmHg 73%
    09:00 +4°C° 0 mm 3 mps 673 mmHg 68%
    10:00 +5°C° 0 mm 3 mps 673 mmHg 62%
    11:00 +8°C° 0 mm 3 mps 673 mmHg 56%
    12:00 +9°C° 0 mm 3 mps 674 mmHg 51%
    13:00 +9°C° 0 mm 3 mps 673 mmHg 51%
    14:00 +9°C° 0 mm 3 mps 673 mmHg 52%
    15:00 +9°C° 0 mm 3 mps 673 mmHg 52%
    16:00 +7°C° 0 mm 3 mps 672 mmHg 59%
    17:00 +5°C° 0 mm 2 mps 672 mmHg 67%
    18:00 +3°C° 0 mm 2 mps 672 mmHg 74%
    19:00 +3°C° 0 mm 2 mps 672 mmHg 73%
    20:00 +2°C° 0 mm 2 mps 672 mmHg 73%
    21:00 +2°C° 0 mm 2 mps 672 mmHg 72%
    22:00 +2°C° 0 mm 2 mps 672 mmHg 72%
    23:00 0°C° 0 mm 3 mps 671 mmHg 71%

    27 January, Friday

    Time Temperature Precipitation Wind Pressure Humidity
    00:00 0°C° 0 mm 3 mps 671 mmHg 71%
    01:00 0°C° 0 mm 3 mps 671 mmHg 71%
    02:00 -1°C° 0 mm 3 mps 670 mmHg 71%
    03:00 -1°C° 0 mm 2 mps 670 mmHg 72%
    04:00 -1°C° 0 mm 2 mps 670 mmHg 71%
    05:00 -1°C° 0 mm 2 mps 670 mmHg 71%
    06:00 -1°C° 0 mm 2 mps 670 mmHg 70%
    07:00 +1°C° 0 mm 3 mps 670 mmHg 65%
    08:00 +2°C° 0 mm 3 mps 671 mmHg 60%
    09:00 +4°C° 0 mm 4 mps 671 mmHg 54%
    10:00 +5°C° 0 mm 4 mps 671 mmHg 52%
    11:00 +6°C° 0 mm 4 mps 671 mmHg 49%
    12:00 +7°C° 0 mm 4 mps 671 mmHg 46%
    13:00 +6°C° 0.1 mm 4 mps 670 mmHg 50%
    14:00 +5°C° 0.1 mm 4 mps 670 mmHg 54%
    15:00 +5°C° 0.1 mm 3 mps 669 mmHg 58%
    16:00 +4°C° 0.2 mm 3 mps 669 mmHg 63%
    17:00 +3°C° 0.2 mm 3 mps 669 mmHg 67%
    18:00 +3°C° 0.2 mm 2 mps 669 mmHg 72%
    19:00 +2°C° 0.1 mm 2 mps 669 mmHg 73%
    20:00 +2°C° 0.1 mm 2 mps 669 mmHg 73%
    21:00 +2°C° 0.1 mm 2 mps 669 mmHg 74%
    22:00 +2°C° 0 mm 2 mps 669 mmHg 74%
    23:00 +1°C° 0 mm 2 mps 669 mmHg 74%

    28 January, Saturday

    Time Temperature Precipitation Wind Pressure Humidity
    00:00 +1°C° 0 mm 2 mps 668 mmHg 75%
    01:00 +1°C° 0.5 mm 2 mps 668 mmHg 77%
    02:00 +1°C° 0.5 mm 2 mps 668 mmHg 80%
    03:00 +1°C° 0.5 mm 2 mps 668 mmHg 82%
    04:00 +1°C° 0.4 mm 2 mps 668 mmHg 85%
    05:00 +2°C° 0.4 mm 1 mps 668 mmHg 87%
    06:00 +2°C° 0.4 mm 1 mps 668 mmHg 89%
    07:00 +2°C° 0.2 mm 1 mps 669 mmHg 88%
    08:00 +3°C° 0.2 mm 1 mps 669 mmHg 87%
    09:00 +4°C° 0.2 mm 1 mps 670 mmHg 86%
    10:00 +5°C° 0.1 mm 1 mps 670 mmHg 83%
    11:00 +6°C° 0.1 mm 1 mps 671 mmHg 80%
    12:00 +7°C° 0.1 mm 1 mps 671 mmHg 77%
    13:00 +6°C° 0 mm 2 mps 671 mmHg 78%
    14:00 +6°C° 0 mm 2 mps 671 mmHg 78%
    15:00 +6°C° 0 mm 2 mps 671 mmHg 78%
    16:00 +6°C° 0 mm 1 mps 672 mmHg 84%
    17:00 +5°C° 0 mm 1 mps 672 mmHg 89%
    18:00 +3°C° 0 mm 1 mps 672 mmHg 94%
    19:00 +3°C° 0 mm 1 mps 672 mmHg 94%
    20:00 +3°C° 0 mm 1 mps 673 mmHg 95%
    21:00 +2°C° 0 mm 1 mps 673 mmHg 95%
    22:00 +2°C° 0 mm 1 mps 673 mmHg 96%
    23:00 +3°C° 0 mm 1 mps 673 mmHg 96%

    29 January, Sunday

    Time Temperature Precipitation Wind Pressure Humidity
    00:00 +3°C° 0 mm 1 mps 673 mmHg 96%
    01:00 +3°C° 0 mm 1 mps 673 mmHg 96%
    02:00 +2°C° 0 mm 1 mps 673 mmHg 97%
    03:00 +2°C° 0 mm 1 mps 673 mmHg 97%
    04:00 +2°C° 0 mm 1 mps 673 mmHg 97%
    05:00 +2°C° 0 mm 1 mps 674 mmHg 97%
    06:00 +2°C° 0 mm 1 mps 674 mmHg 97%
    07:00 +4°C° 0 mm 1 mps 675 mmHg 92%
    08:00 +5°C° 0 mm 1 mps 675 mmHg 88%
    09:00 +7°C° 0 mm 1 mps 676 mmHg 84%
    10:00 +8°C° 0.1 mm 1 mps 676 mmHg 78%
    11:00 +9°C° 0.1 mm 1 mps 676 mmHg 73%
    12:00 +10°C° 0.1 mm 1 mps 676 mmHg 68%
    13:00 +10°C° 0.1 mm 1 mps 676 mmHg 69%
    14:00 +10°C° 0.1 mm 1 mps 676 mmHg 70%
    15:00 +9°C° 0.1 mm 1 mps 676 mmHg 71%
    16:00 +8°C° 0 mm 1 mps 675 mmHg 78%
    17:00 +6°C° 0 mm 1 mps 675 mmHg 86%
    18:00 +4°C° 0 mm 1 mps 675 mmHg 94%
    19:00 +3°C° 0 mm 1 mps 675 mmHg 94%
    20:00 +3°C° 0 mm 1 mps 675 mmHg 95%
    21:00 +1°C° 0 mm 0 mps 675 mmHg 96%
    22:00 +1°C° 0 mm 0 mps 675 mmHg 96%
    23:00 +2°C° 0 mm 1 mps 675 mmHg 96%
    Show more